Regional Weather Roundup
Issued by NWS

Home | Current Version | Previous Version | Graphics & Text | Print | Product List | Glossary On
Versions: 1 2 3 4 5 6 7 8 9 10 11 12 13 14 15 16 17 18 19 20 21 22 23 24 25 26 27
000
ASUS45 KSLC 312010
RWRUT

UTAH REGIONAL WEATHER ROUNDUP
NATIONAL WEATHER SERVICE SALT LAKE CITY UT
200 PM MDT FRI OCT 31 2014

UTZ001>011-023>025-312100-

NORTHERN UTAH

CITY           SKY/WX    TMP DP  RH WIND       PRES   REMARKS
BRIGHAM CITY   MOSUNNY   70  24  18 CALM      29.92F
HILL AFB       MOSUNNY   73  24  16 S25G33    29.92F
LOGAN          SUNNY     71  26  18 W9        29.91F
OGDEN          SUNNY     74  23  15 S23G31    29.90F
PROVO AIRPORT  PTSUNNY   70  25  18 CALM      29.97
SALT LAKE CITY MOSUNNY   74  20  13 S20G30    29.90F
VERNAL         SUNNY     58  28  32 CALM      30.10F
WENDOVER       MOSUNNY   57  28  33 E6        29.91F
HEBER CITY     MOSUNNY   70  21  16 W5G17     29.99F
WEST JORDAN    SUNNY     68  36  30 SE14G21   29.94F

$$

UTZ012>022-026-027-312100-

SOUTHERN/CENTRAL UTAH

CITY           SKY/WX    TMP DP  RH WIND       PRES   REMARKS
BLANDING       SUNNY     65  25  22 S9G20     30.26F
BRYCE CANYON   SUNNY     58  25  28 SE17      30.18F
CEDAR CITY     LGT RAIN  71  23  16 S26G45    30.00F
DELTA          SUNNY     73  27  17 S10G21    29.95F
HANKSVILLE       N/A     57  23  26 SE5       30.10F
MILFORD        SUNNY     74  31  20 S23G36    29.96F
MOAB/CYNLANDS  SUNNY     67  24  19 CALM      30.07F
PRICE          SUNNY     62  20  19 SE12      30.13F
ST GEORGE      PTCLDY    79  34  19 W7        29.91F
KANAB            N/A     72  32  23 S6        30.06F

$$

REGIONAL REPORTS     COLORADO/ARIZONA

CITY           SKY/WX    TMP DP  RH WIND       PRES   REMARKS
CRAIG, CO      PTSUNNY   67  28  23 VRB3      30.12F
GRAND JUNCTION MOSUNNY   66  23  19 SE7       30.09F
RIFLE          PTSUNNY   59  27  29 CALM      30.14F
MONTROSE       CLOUDY    58  25  28 N5        30.17F
CORTEZ         SUNNY     69  25  19 S12G17    30.21F
PAGE, AZ       MOSUNNY   67  24  19 CALM      30.05F
GRAND CANYON   MOSUNNY   70  33  25 SW18G30   30.13F
KINGMAN        SUNNY     81  36  19 SW17G25   29.93F
FLAGSTAFF      SUNNY     66  36  32 SW18G24   30.18F

$$

REGIONAL REPORTS    NEVADA/IDAHO/WYOMING

CITY           SKY/WX    TMP DP  RH WIND       PRES   REMARKS
LAS VEGAS, NV  MOSUNNY   81  32  17 VRB5      29.81F
ELY            PTSUNNY   66  22  18 S22G29    29.96F
ELKO           CLOUDY    65  21  18 S18G26    29.86F
POCATELLO, ID  SUNNY     69  25  19 S24G31    29.88F
BURLEY         CLOUDY    64  30  27 SE3       29.85F
EVANSTON, WY   MOSUNNY   64  18  17 SW20G26   30.04F
ROCK SPRINGS   MOSUNNY   60  27  28 CALM      30.07F
KEMMERER       SUNNY     61  23  23 S3        30.07F

$$



USA.gov is the U.S. government's official web portal to all federal, state and local government web resources and services.